| time (UTC) | temp C | wind direction | speed KPH | gust KPH | rain 1hr cm | rain 24hr cm | rain mn cm | humidity % | barometer mb |
| 20260510123604 | 11 | 177 | 0.0 | 0.0 | 0.00 | 1.22 | 0.00 | 96 | 1010.9 |
| 20260510122605 | 11 | 177 | 0.0 | 0.0 | 0.00 | 1.22 | 0.00 | 96 | 1010.8 |
| 20260510121603 | 11 | 177 | 0.0 | 0.0 | 0.00 | 1.24 | 0.00 | 96 | 1010.7 |
| 20260510120604 | 11 | 177 | 0.0 | 0.0 | 0.00 | 1.24 | 0.00 | 96 | 1010.7 |
| 20260510120046 | 11 | 177 | 0.0 | 0.0 | 0.00 | 1.24 | 0.00 | 96 | 1010.7 |
| 20260510114605 | 11 | 177 | 0.0 | 0.0 | 0.00 | 1.24 | 0.00 | 96 | 1010.7 |
| 20260510113604 | 11 | 177 | 0.0 | 0.0 | 0.00 | 1.24 | 0.00 | 96 | 1010.3 |
| 20260510113042 | 11 | 177 | 0.0 | 0.0 | 0.00 | 1.24 | 0.00 | 96 | 1010.4 |
| 20260510111601 | 11 | 177 | 0.0 | 0.0 | 0.00 | 1.24 | 0.00 | 96 | 1010.4 |
| 20260510110556 | 11 | 177 | 0.0 | 0.0 | 0.00 | 1.24 | 0.00 | 96 | 1010.2 |
| 20260510105554 | 11 | 177 | 0.0 | 0.0 | 0.00 | 1.24 | 0.00 | 96 | 1010.2 |
| 20260510104554 | 10 | 177 | 0.0 | 0.0 | 0.00 | 1.24 | 0.00 | 96 | 1010.1 |
| 20260510103555 | 10 | 177 | 0.0 | 0.0 | 0.00 | 1.24 | 0.00 | 96 | 1010.0 |
| 20260510102555 | 10 | 177 | 0.0 | 0.0 | 0.00 | 1.24 | 0.00 | 96 | 1010.1 |
| 20260510101554 | 10 | 177 | 0.0 | 0.0 | 0.00 | 1.24 | 0.00 | 96 | 1009.9 |
| 20260510100554 | 10 | 177 | 0.0 | 1.6 | 0.00 | 1.24 | 0.00 | 96 | 1009.5 |
| 20260510100519 | 10 | 177 | 0.0 | 0.0 | 0.00 | 1.24 | 0.00 | 96 | 1009.9 |
| 20260510095029 | 10 | 177 | 0.0 | 3.2 | 0.00 | 1.24 | 0.00 | 95 | 1010.0 |
| 20260510093551 | 10 | 177 | 0.0 | 1.6 | 0.00 | 1.24 | 0.00 | 96 | 1010.0 |
| 20260510092549 | 11 | 177 | 0.0 | 0.0 | 0.00 | 1.24 | 0.00 | 96 | 1010.1 |
| 20260510091551 | 11 | 177 | 0.0 | 1.6 | 0.00 | 1.24 | 0.00 | 96 | 1009.9 |
| 20260510091447 | 11 | 177 | 0.0 | 1.6 | 0.00 | 1.24 | 0.00 | 96 | 1010.1 |
| 20260510091122 | 11 | 177 | 0.0 | 1.6 | 0.00 | 1.24 | 0.00 | 96 | 1009.8 |
| 20260510085515 | 11 | 177 | 0.0 | 0.0 | 0.00 | 1.27 | 0.00 | 96 | 1010.3 |
| 20260510083550 | 11 | 177 | 0.0 | 0.0 | 0.00 | 1.30 | 0.00 | 96 | 1010.1 |
| 20260510082549 | 11 | 177 | 0.0 | 1.6 | 0.00 | 1.32 | 0.00 | 96 | 1010.0 |
| 20260510081549 | 11 | 177 | 0.0 | 0.0 | 0.00 | 1.35 | 0.00 | 95 | 1009.9 |
| 20260510081026 | 11 | 177 | 0.0 | 0.0 | 0.00 | 1.35 | 0.00 | 95 | 1009.8 |
| 20260510075547 | 11 | 177 | 0.0 | 0.0 | 0.00 | 1.35 | 0.00 | 96 | 1009.9 |
| 20260510075031 | 11 | 177 | 0.0 | 0.0 | 0.00 | 1.35 | 0.00 | 96 | 1009.7 |
| 20260510074027 | 11 | 177 | 0.0 | 0.0 | 0.00 | 1.35 | 0.00 | 96 | 1009.7 |
| 20260510072549 | 11 | 177 | 0.0 | 0.0 | 0.00 | 1.35 | 0.00 | 96 | 1009.6 |
| 20260510071547 | 11 | 177 | 0.0 | 0.0 | 0.00 | 1.35 | 0.00 | 95 | 1009.6 |
| 20260510070548 | 11 | 177 | 0.0 | 0.0 | 0.00 | 1.35 | 0.00 | 95 | 1009.6 |
| 20260510065547 | 11 | 177 | 0.0 | 0.0 | 0.00 | 1.35 | 0.00 | 96 | 1009.6 |
| 20260510064545 | 11 | 177 | 0.0 | 0.0 | 0.00 | 1.35 | 0.00 | 96 | 1009.6 |
| 20260510064025 | 11 | 177 | 0.0 | 0.0 | 0.00 | 1.35 | 0.00 | 96 | 1009.7 |
| 20260510062545 | 11 | 177 | 0.0 | 0.0 | 0.00 | 1.35 | 0.00 | 96 | 1009.5 |
| 20260510061544 | 11 | 177 | 0.0 | 0.0 | 0.00 | 1.35 | 0.00 | 96 | 1009.3 |
| 20260510060544 | 11 | 177 | 0.0 | 0.0 | 0.00 | 1.35 | 0.00 | 96 | 1009.3 |
| 20260510055545 | 11 | 177 | 0.0 | 0.0 | 0.00 | 1.35 | 0.00 | 96 | 1009.3 |
| 20260510054547 | 11 | 177 | 0.0 | 0.0 | 0.00 | 1.35 | 0.00 | 96 | 1009.4 |
| 20260510053545 | 11 | 177 | 0.0 | 0.0 | 0.00 | 1.35 | 0.00 | 96 | 1009.5 |
| 20260510052545 | 11 | 177 | 0.0 | 1.6 | 0.00 | 1.35 | 0.00 | 96 | 1009.5 |
| 20260510051539 | 11 | 177 | 0.0 | 0.0 | 0.00 | 1.35 | 0.00 | 96 | 1009.4 |
| 20260510050539 | 11 | 177 | 0.0 | 0.0 | 0.00 | 1.35 | 0.00 | 96 | 1009.6 |
| 20260510045539 | 11 | 177 | 0.0 | 0.0 | 0.00 | 1.35 | 0.00 | 96 | 1009.6 |
| 20260510044538 | 11 | 177 | 0.0 | 0.0 | 0.00 | 1.35 | 0.00 | 95 | 1009.6 |
| 20260510043538 | 11 | 177 | 0.0 | 0.0 | 0.00 | 1.35 | 0.00 | 95 | 1009.6 |
| 20260510042536 | 11 | 177 | 0.0 | 0.0 | 0.00 | 1.35 | 0.00 | 95 | 1009.5 |
| 20260510041536 | 11 | 177 | 0.0 | 0.0 | 0.00 | 1.35 | 0.00 | 95 | 1009.4 |
| 20260510040536 | 11 | 177 | 0.0 | 0.0 | 0.00 | 1.35 | 0.00 | 95 | 1009.3 |
| 20260510035538 | 11 | 177 | 0.0 | 0.0 | 0.00 | 1.35 | 1.35 | 95 | 1009.4 |
| 20260510034531 | 11 | 177 | 0.0 | 0.0 | 0.00 | 1.35 | 1.35 | 95 | 1009.5 |
| 20260510033530 | 11 | 177 | 0.0 | 0.0 | 0.00 | 1.35 | 1.35 | 95 | 1009.5 |
| 20260510032530 | 11 | 177 | 0.0 | 0.0 | 0.00 | 1.35 | 1.35 | 95 | 1009.5 |
| 20260510031532 | 11 | 177 | 0.0 | 0.0 | 0.00 | 1.35 | 1.35 | 95 | 1009.5 |
| 20260510031500 | 11 | 177 | 0.0 | 1.6 | 0.00 | 1.35 | 1.35 | 95 | 1009.6 |
| 20260510025531 | 11 | 177 | 0.0 | 3.2 | 0.00 | 1.35 | 1.35 | 95 | 1009.4 |
| 20260510024530 | 11 | 177 | 0.0 | 3.2 | 0.00 | 1.35 | 1.35 | 95 | 1009.3 |
| 20260510024004 | 11 | 177 | 0.0 | 3.2 | 0.00 | 1.35 | 1.35 | 95 | 1009.2 |
| 20260510022531 | 11 | 177 | 0.0 | 1.6 | 0.00 | 1.35 | 1.35 | 95 | 1009.2 |
| 20260510021525 | 11 | 177 | 0.0 | 3.2 | 0.00 | 1.35 | 1.35 | 95 | 1009.4 |
| 20260510021002 | 11 | 177 | 0.0 | 3.2 | 0.00 | 1.35 | 1.35 | 95 | 1009.5 |
| 20260510015524 | 11 | 177 | 0.0 | 0.0 | 0.00 | 1.35 | 1.35 | 95 | 1009.5 |
| 20260510014525 | 11 | 177 | 0.0 | 0.0 | 0.00 | 1.35 | 1.35 | 95 | 1009.6 |
| 20260510013525 | 11 | 177 | 0.0 | 0.0 | 0.00 | 1.35 | 1.35 | 95 | 1009.5 |
| 20260510012525 | 11 | 177 | 0.0 | 1.6 | 0.00 | 1.35 | 1.35 | 95 | 1009.4 |
| 20260510011524 | 11 | 177 | 0.0 | 4.8 | 0.00 | 1.35 | 1.35 | 95 | 1009.3 |
| 20260510010524 | 11 | 76 | 0.0 | 0.0 | 0.00 | 1.35 | 1.35 | 95 | 1009.1 |
| 20260510005525 | 11 | 57 | 0.0 | 0.0 | 0.00 | 1.35 | 1.35 | 95 | 1009.1 |
| 20260510004519 | 11 | 57 | 0.0 | 0.0 | 0.00 | 1.35 | 1.35 | 95 | 1009.2 |
| 20260510003519 | 11 | 57 | 0.0 | 0.0 | 0.00 | 1.35 | 1.35 | 95 | 1008.9 |
| 20260510002519 | 11 | 57 | 0.0 | 0.0 | 0.00 | 1.35 | 1.35 | 95 | 1008.7 |
| 20260510001518 | 11 | 57 | 0.0 | 0.0 | 0.03 | 1.35 | 1.35 | 95 | 1008.6 |
| 20260510000519 | 11 | 57 | 0.0 | 0.0 | 0.03 | 1.35 | 1.35 | 95 | 1008.6 |
| 20260509235948 | 11 | 57 | 0.0 | 0.0 | 0.03 | 1.35 | 1.35 | 95 | 1008.7 |
| 20260509234519 | 11 | 57 | 0.0 | 0.0 | 0.08 | 1.35 | 1.35 | 95 | 1008.7 |
| 20260509233520 | 11 | 57 | 0.0 | 0.0 | 0.10 | 1.35 | 1.35 | 95 | 1008.8 |
| 20260509232520 | 11 | 57 | 0.0 | 0.0 | 0.13 | 1.35 | 1.35 | 95 | 1009.0 |
| 20260509231513 | 11 | 57 | 0.0 | 0.0 | 0.13 | 1.32 | 1.32 | 95 | 1009.2 |
| 20260509230513 | 11 | 57 | 0.0 | 0.0 | 0.18 | 1.32 | 1.32 | 95 | 1009.2 |
| 20260509225953 | 11 | 57 | 0.0 | 0.0 | 0.18 | 1.32 | 1.32 | 95 | 1009.4 |
| 20260509224513 | 11 | 57 | 0.0 | 0.0 | 0.15 | 1.27 | 1.27 | 95 | 1009.3 |
| 20260509223511 | 11 | 57 | 0.0 | 0.0 | 0.15 | 1.24 | 1.24 | 95 | 1009.2 |
| 20260509222510 | 11 | 57 | 0.0 | 0.0 | 0.13 | 1.22 | 1.22 | 95 | 1009.4 |
| 20260509221511 | 11 | 57 | 0.0 | 0.0 | 0.13 | 1.19 | 1.19 | 95 | 1009.6 |
| 20260509220511 | 11 | 57 | 0.0 | 0.0 | 0.08 | 1.14 | 1.17 | 95 | 1009.7 |
| 20260509215510 | 11 | 57 | 0.0 | 0.0 | 0.10 | 1.14 | 1.14 | 95 | 1009.8 |
| 20260509214511 | 11 | 57 | 0.0 | 0.0 | 0.13 | 1.12 | 1.12 | 95 | 1009.8 |
| 20260509213511 | 11 | 57 | 0.0 | 0.0 | 0.13 | 1.09 | 1.09 | 95 | 1009.6 |
| 20260509212506 | 11 | 57 | 0.0 | 0.0 | 0.18 | 1.09 | 1.09 | 95 | 1009.6 |
| 20260509211506 | 11 | 57 | 0.0 | 0.0 | 0.20 | 1.07 | 1.07 | 94 | 1009.3 |
| 20260509210505 | 11 | 57 | 0.0 | 0.0 | 0.25 | 1.07 | 1.07 | 94 | 1009.3 |
| 20260509205504 | 11 | 57 | 0.0 | 0.0 | 0.25 | 1.04 | 1.04 | 94 | 1009.6 |
| 20260509204506 | 11 | 57 | 0.0 | 0.0 | 0.25 | 0.99 | 0.99 | 94 | 1009.6 |
| 20260509203459 | 11 | 57 | 0.0 | 0.0 | 0.38 | 0.97 | 0.97 | 94 | 1009.8 |
| 20260509202501 | 11 | 57 | 0.0 | 0.0 | 0.46 | 0.91 | 0.91 | 94 | 1009.8 |
| 20260509201501 | 11 | 57 | 0.0 | 0.0 | 0.56 | 0.86 | 0.86 | 94 | 1009.8 |
| 20260509200501 | 11 | 57 | 0.0 | 3.2 | 0.58 | 0.81 | 0.84 | 93 | 1009.9 |
| 20260509195459 | 11 | 57 | 0.0 | 3.2 | 0.61 | 0.79 | 0.79 | 93 | 1009.6 |
| 20260509194501 | 11 | 42 | 0.0 | 1.6 | 0.61 | 0.74 | 0.76 | 93 | 1009.8 |
| 20260509193500 | 11 | 42 | 0.0 | 1.6 | 0.46 | 0.58 | 0.58 | 92 | 1010.0 |
| 20260509192501 | 12 | 42 | 0.0 | 1.6 | 0.33 | 0.46 | 0.46 | 92 | 1010.0 |
| 20260509191939 | 12 | 42 | 0.0 | 1.6 | 0.18 | 0.30 | 0.33 | 91 | 1010.0 |
| 20260509190457 | 12 | 42 | 0.0 | 4.8 | 0.10 | 0.23 | 0.25 | 90 | 1009.7 |
| 20260509185943 | 12 | 58 | 0.0 | 1.6 | 0.05 | 0.18 | 0.20 | 89 | 1009.5 |
| 20260509184457 | 12 | 58 | 1.6 | 3.2 | 0.00 | 0.13 | 0.13 | 87 | 1009.6 |
| 20260509183457 | 12 | 61 | 1.6 | 6.4 | 0.00 | 0.13 | 0.13 | 87 | 1009.5 |
| 20260509182457 | 13 | 29 | 0.0 | 3.2 | 0.00 | 0.13 | 0.13 | 87 | 1009.4 |
| 20260509181455 | 13 | 29 | 1.6 | 6.4 | 0.00 | 0.13 | 0.13 | 86 | 1009.5 |
| 20260509180456 | 13 | 27 | 1.6 | 4.8 | 0.00 | 0.13 | 0.13 | 85 | 1009.4 |
| 20260509175456 | 13 | 28 | 1.6 | 4.8 | 0.00 | 0.13 | 0.13 | 86 | 1009.5 |
| 20260509174449 | 13 | 29 | 1.6 | 3.2 | 0.00 | 0.13 | 0.13 | 87 | 1009.7 |
| 20260509173921 | 12 | 28 | 0.0 | 4.8 | 0.00 | 0.13 | 0.13 | 87 | 1009.8 |
| 20260509172447 | 12 | 26 | 0.0 | 3.2 | 0.00 | 0.13 | 0.13 | 88 | 1010.1 |
| 20260509171447 | 12 | 26 | 1.6 | 3.2 | 0.00 | 0.13 | 0.13 | 89 | 1010.3 |
| 20260509170448 | 12 | 26 | 1.6 | 6.4 | 0.00 | 0.13 | 0.13 | 89 | 1010.5 |
| 20260509165450 | 12 | 28 | 0.0 | 1.6 | 0.00 | 0.13 | 0.13 | 89 | 1010.5 |
| 20260509164447 | 11 | 28 | 1.6 | 4.8 | 0.00 | 0.13 | 0.13 | 89 | 1010.2 |
| 20260509163449 | 11 | 15 | 1.6 | 3.2 | 0.00 | 0.13 | 0.13 | 89 | 1010.8 |
| 20260509162449 | 11 | 15 | 1.6 | 6.4 | 0.00 | 0.13 | 0.13 | 89 | 1010.8 |
| 20260509161443 | 11 | 15 | 1.6 | 4.8 | 0.00 | 0.13 | 0.13 | 89 | 1011.0 |
| 20260509160442 | 11 | 137 | 0.0 | 3.2 | 0.00 | 0.13 | 0.13 | 89 | 1011.1 |
| 20260509155442 | 11 | 137 | 0.0 | 3.2 | 0.00 | 0.13 | 0.13 | 89 | 1011.1 |
| 20260509154441 | 11 | 138 | 0.0 | 3.2 | 0.00 | 0.13 | 0.13 | 89 | 1011.0 |
| 20260509153918 | 11 | 138 | 0.0 | 3.2 | 0.00 | 0.13 | 0.13 | 90 | 1011.0 |
| 20260509152442 | 11 | 165 | 0.0 | 3.2 | 0.00 | 0.13 | 0.13 | 89 | 1011.4 |
| 20260509151443 | 10 | 165 | 1.6 | 6.4 | 0.00 | 0.13 | 0.13 | 88 | 1011.3 |
| 20260509150441 | 10 | 60 | 1.6 | 6.4 | 0.00 | 0.13 | 0.13 | 90 | 1011.2 |
| 20260509145442 | 10 | 68 | 0.0 | 1.6 | 0.00 | 0.13 | 0.13 | 91 | 1011.4 |
| 20260509144914 | 10 | 68 | 0.0 | 3.2 | 0.00 | 0.13 | 0.13 | 90 | 1011.4 |
| 20260509143434 | 10 | 68 | 1.6 | 4.8 | 0.00 | 0.13 | 0.13 | 91 | 1011.1 |
| 20260509142435 | 9 | 30 | 0.0 | 3.2 | 0.00 | 0.13 | 0.13 | 91 | 1011.0 |
| 20260509141914 | 9 | 30 | 0.0 | 3.2 | 0.00 | 0.13 | 0.13 | 91 | 1011.0 |
| 20260509140910 | 8 | 30 | 1.6 | 3.2 | 0.00 | 0.13 | 0.13 | 91 | 1011.1 |
| 20260509135434 | 8 | 30 | 0.0 | 3.2 | 0.00 | 0.13 | 0.13 | 92 | 1011.3 |
| 20260509134435 | 8 | 30 | 0.0 | 4.8 | 0.00 | 0.13 | 0.13 | 91 | 1011.5 |
| 20260509133433 | 8 | 30 | 1.6 | 4.8 | 0.00 | 0.13 | 0.13 | 91 | 1011.5 |
| 20260509132436 | 8 | 355 | 0.0 | 3.2 | 0.00 | 0.13 | 0.13 | 92 | 1011.6 |
| 20260509131428 | 7 | 355 | 0.0 | 4.8 | 0.03 | 0.13 | 0.13 | 92 | 1011.8 |
| 20260509130430 | 7 | 355 | 0.0 | 3.2 | 0.03 | 0.13 | 0.13 | 92 | 1011.9 |
| 20260509125429 | 7 | 355 | 0.0 | 4.8 | 0.03 | 0.13 | 0.13 | 92 | 1012.0 |
| 20260509124430 | 7 | 355 | 0.0 | 1.6 | 0.03 | 0.13 | 0.13 | 93 | 1012.1 |